ARG1603 SAZM-SABE

Flight info

Callsign ARG1603
Flight time N/A
Altitude 33000
Route PULPA1G PULPA DCT TENIL TENIL8Q
Aircraft B738/M-SDE2E3FGHIRWXY/LB1

Departure

Time 2026-04-24 14:54
Airport Ástor Piazzola International Airport (SAZM)

Arrival

Time N/A
Airport Aeroparque Jorge Newbery (SABE)
Time Latitude Longitude Altitude Speed Heading
2026-04-24 14:32 -37.93334 -57.58070 53 ft 0 kts 334°
2026-04-24 14:46 -37.93350 -57.58060 50 ft 4 kts 338°
2026-04-24 14:46 -37.93375 -57.58050 50 ft 4 kts 349°
2026-04-24 14:46 -37.93402 -57.58048 51 ft 4 kts 14°
2026-04-24 14:47 -37.93413 -57.58053 48 ft 0 kts 26°
2026-04-24 14:49 -37.93405 -57.58047 51 ft 5 kts 27°
2026-04-24 14:50 -37.93377 -57.57994 53 ft 9 kts 95°
2026-04-24 14:50 -37.93410 -57.57910 53 ft 12 kts 120°
2026-04-24 14:50 -37.93457 -57.57804 53 ft 16 kts 120°
2026-04-24 14:50 -37.93515 -57.57672 53 ft 19 kts 118°
2026-04-24 14:51 -37.93586 -57.57513 53 ft 23 kts 119°
2026-04-24 14:51 -37.93671 -57.57321 53 ft 25 kts 119°
2026-04-24 14:51 -37.93753 -57.57136 53 ft 24 kts 119°
2026-04-24 14:51 -37.93829 -57.56964 53 ft 23 kts 120°
2026-04-24 14:52 -37.93904 -57.56794 51 ft 22 kts 120°
2026-04-24 14:52 -37.93978 -57.56627 49 ft 21 kts 120°
2026-04-24 14:52 -37.94032 -57.56460 52 ft 21 kts 78°
2026-04-24 14:52 -37.93979 -57.56325 52 ft 15 kts 57°
2026-04-24 14:53 -37.93904 -57.56367 52 ft 15 kts 294°
2026-04-24 14:53 -37.93783 -57.56611 51 ft 69 kts 303°
2026-04-24 14:53 -37.93379 -57.57392 51 ft 141 kts 306°
2026-04-24 14:53 -37.92788 -57.58505 672 ft 156 kts 306°
2026-04-24 14:54 -37.92209 -57.59650 1693 ft 151 kts 299°
2026-04-24 14:54 -37.91640 -57.60782 2578 ft 162 kts 298°
2026-04-24 14:54 -37.90978 -57.62138 2932 ft 199 kts 299°
2026-04-24 14:54 -37.90196 -57.63729 3378 ft 223 kts 300°
2026-04-24 14:55 -37.89618 -57.64907 3618 ft 240 kts 300°
2026-04-24 14:55 -37.88414 -57.67342 4868 ft 248 kts 301°
2026-04-24 14:55 -37.87505 -57.69179 6009 ft 246 kts 301°
2026-04-24 14:55 -37.86591 -57.71028 7012 ft 250 kts 301°
2026-04-24 14:56 -37.85606 -57.72849 7973 ft 254 kts 312°
2026-04-24 14:56 -37.84132 -57.74125 8949 ft 262 kts 332°
2026-04-24 14:56 -37.82338 -57.74713 9724 ft 274 kts 351°
2026-04-24 14:56 -37.80422 -57.74671 10075 ft 279 kts 357°
2026-04-24 14:57 -37.78451 -57.74500 10084 ft 286 kts 358°